07/03/2012,00:00:07,   0.0,  0.0,  196,+11.5,  92.5,    1.2,   +7.8, +104.3,  +40.4,+1100.00,2C
07/03/2012,00:00:25,   0.0,  0.0,  179,+11.6,  92.5,    1.1,   +7.7, +104.3,  +41.1,+1100.00,2A
07/03/2012,00:00:51,   0.0,  0.0,  203,+11.6,  92.5,    1.3,   +7.7, +104.8,  +40.6,+1100.00,28
07/03/2012,00:01:09,   0.0,  0.0,  195,+11.6,  92.5,    1.3,   +7.8, +104.7,  +40.8,+1100.00,38
07/03/2012,00:01:26,   0.0,  0.0,  183,+11.6,  92.6,    1.1,   +7.7, +104.7,  +40.9,+1100.00,33
07/03/2012,00:01:52,   0.0,  0.0,  197,+11.6,  92.6,    1.1,   +7.8, +104.3,  +41.1,+1100.00,2D
07/03/2012,00:02:10,   0.0,  0.0,  192,+11.6,  92.6,    1.0,   +8.0, +104.1,  +40.5,+1100.00,1C
07/03/2012,00:02:28,   0.0,  0.0,  194,+11.5,  92.6,    1.2,   +7.7, +104.3,  +40.9,+1100.00,34
07/03/2012,00:02:46,   0.0,  0.0,  167,+11.5,  92.7,    1.1,   +7.8, +104.5,  +40.6,+1100.00,34
07/03/2012,00:03:12,   0.0,  0.0,  186,+11.6,  92.7,    1.0,   +7.7, +104.2,  +40.4,+1100.00,29
07/03/2012,00:03:30,   0.0,  0.0,  193,+11.5,  92.7,    1.0,   +7.6, +104.0,  +40.7,+1100.00,26
07/03/2012,00:03:48,   0.0,  0.0,  206,+11.5,  92.7,    1.3,   +7.7, +104.0,  +40.4,+1100.00,2B
07/03/2012,00:04:06,   0.0,  0.0,  220,+11.5,  92.8,    1.2,   +7.9, +104.3,  +40.0,+1100.00,23
07/03/2012,00:04:32,   0.0,  0.0,  190,+11.5,  92.8,    1.2,   +7.7, +104.7,  +41.0,+1100.00,2B
07/03/2012,00:04:50,   0.0,  0.0,  217,+11.5,  92.9,    1.0,   +7.8, +104.9,  +41.1,+1100.00,2E
07/03/2012,00:05:08,   0.0,  0.0,  189,+11.5,  92.9,    1.3,   +7.7, +104.4,  +40.6,+1100.00,3B
07/03/2012,00:05:26,   0.0,  0.0,  207,+11.6,  92.9,    1.0,   +7.7, +104.3,  +40.5,+1100.00,2E
07/03/2012,00:05:52,   0.0,  0.0,  217,+11.5,  92.9,    1.2,   +7.8, +105.0,  +40.8,+1100.00,31
07/03/2012,00:06:10,   0.0,  0.0,  201,+11.5,  92.9,    1.2,   +7.7, +104.6,  +40.7,+1100.00,28
07/03/2012,00:06:27,   0.0,  0.0,  201,+11.5,  92.9,    1.2,   +7.8, +104.3,  +40.9,+1100.00,30
07/03/2012,00:06:45,   0.0,  0.0,  188,+11.5,  92.9,    1.1,   +7.8, +105.3,  +40.8,+1100.00,3D
07/03/2012,00:07:11,   0.0,  0.0,  194,+11.5,  93.0,    1.0,   +7.7, +105.1,  +40.4,+1100.00,24
07/03/2012,00:07:29,   0.0,  0.0,  209,+11.5,  93.0,    1.2,   +7.8, +105.0,  +40.8,+1100.00,30
07/03/2012,00:07:47,   0.0,  0.0,  189,+11.5,  92.9,    1.2,   +7.7, +105.1,  +40.6,+1100.00,3D
07/03/2012,00:08:12,   0.0,  0.0,  164,+11.5,  93.0,    1.1,   +7.7, +104.6,  +40.6,+1100.00,2A
07/03/2012,00:08:30,   0.0,  0.0,  206,+11.5,  93.0,    1.2,   +7.8, +104.5,  +40.4,+1100.00,26
07/03/2012,00:08:48,   0.0,  0.0,  219,+11.5,  92.9,    1.0,   +7.7, +104.2,  +40.4,+1100.00,35
07/03/2012,00:09:06,   0.0,  0.0,  199,+11.5,  93.0,    1.2,   +7.8, +103.7,  +40.1,+1100.00,33
07/03/2012,00:09:32,   0.0,  0.0,  208,+11.5,  93.0,    1.1,   +7.8, +104.3,  +40.5,+1100.00,29
07/03/2012,00:09:50,   0.0,  0.0,  180,+11.5,  93.0,    1.0,   +7.8, +103.7,  +40.3,+1100.00,28
07/03/2012,00:10:08,   0.0,  0.0,  179,+11.5,  92.9,    1.0,   +7.8, +103.7,  +40.1,+1100.00,31
07/03/2012,00:10:26,   0.0,  0.0,  200,+11.5,  92.9,    1.2,   +7.7, +104.0,  +40.1,+1100.00,1D
07/03/2012,00:10:52,   0.0,  0.0,  188,+11.5,  93.0,    1.2,   +7.6, +104.6,  +40.5,+1100.00,2C
07/03/2012,00:11:10,   0.0,  0.0,  214,+11.5,  92.9,    0.9,   +7.9, +104.6,  +40.8,+1100.00,31
07/03/2012,00:11:28,   0.0,  0.0,  195,+11.5,  93.0,    1.1,   +7.8, +104.1,  +40.1,+1100.00,26
07/03/2012,00:11:46,   0.0,  0.0,  204,+11.5,  93.0,    1.0,   +7.8, +104.2,  +40.5,+1100.00,21
07/03/2012,00:12:12,   0.0,  0.0,  216,+11.5,  93.0,    1.0,   +7.9, +104.3,  +40.5,+1100.00,20
07/03/2012,00:12:30,   0.0,  0.0,  191,+11.5,  93.0,    1.3,   +7.8, +103.8,  +40.4,+1100.00,27
07/03/2012,00:12:47,   0.0,  0.0,  215,+11.6,  92.9,    1.0,   +7.8, +103.4,  +40.5,+1100.00,2F
07/03/2012,00:13:05,   0.0,  0.0,  169,+11.5,  92.9,    1.3,   +7.8, +103.6,  +40.3,+1100.00,34
07/03/2012,00:13:31,   0.0,  0.0,  202,+11.5,  93.0,    1.0,   +7.7, +103.2,  +40.3,+1100.00,17
07/03/2012,00:13:49,   0.0,  0.0,  208,+11.5,  93.0,    1.3,   +7.8, +103.3,  +40.1,+1100.00,29
07/03/2012,00:14:07,   0.0,  0.0,  199,+11.5,  93.0,    1.1,   +7.8, +103.4,  +39.9,+1100.00,3C
07/03/2012,00:14:32,   0.0,  0.0,  169,+11.5,  93.0,    1.0,   +7.7, +104.5,  +40.3,+1100.00,29
07/03/2012,00:14:50,   0.0,  0.0,  212,+11.5,  93.0,    1.0,   +7.8, +104.2,  +40.6,+1100.00,1F
07/03/2012,00:15:08,   0.0,  0.0,  182,+11.5,  93.0,    1.1,   +7.8, +104.3,  +40.7,+1100.00,2C
07/03/2012,00:15:26,   0.0,  0.0,  186,+11.5,  93.0,    1.3,   +7.8, +105.0,  +40.4,+1100.00,2D
07/03/2012,00:15:52,   0.0,  0.0,  199,+11.5,  93.0,    1.1,   +7.7, +104.4,  +40.3,+1100.00,2F
07/03/2012,00:16:10,   0.0,  0.0,  207,+11.5,  93.0,    1.2,   +7.8, +105.0,  +40.7,+1100.00,23
07/03/2012,00:16:28,   0.0,  0.0,  201,+11.5,  93.1,    1.3,   +7.7, +105.1,  +40.8,+1100.00,29
07/03/2012,00:16:46,   0.0,  0.0,  203,+11.5,  93.0,    1.3,   +7.7, +104.5,  +40.9,+1100.00,2E
07/03/2012,00:17:12,   0.0,  0.0,  201,+11.5,  93.0,    1.1,   +7.8, +104.6,  +40.8,+1100.00,25
07/03/2012,00:17:30,   0.0,  0.0,  214,+11.5,  93.0,    1.3,   +7.7, +105.2,  +40.6,+1100.00,25
07/03/2012,00:17:47,   0.0,  0.0,  204,+11.6,  93.0,    1.4,   +7.8, +104.1,  +40.5,+1100.00,2C
07/03/2012,00:18:05,   0.0,  0.0,  214,+11.5,  92.9,    1.2,   +7.7, +104.3,  +40.5,+1100.00,2E
07/03/2012,00:18:31,   0.0,  0.0,  221,+11.5,  92.9,    1.2,   +7.7, +104.3,  +40.6,+1100.00,2C
07/03/2012,00:18:49,   0.0,  0.0,  223,+11.5,  92.9,    1.4,   +7.8, +103.7,  +40.7,+1100.00,3E
07/03/2012,00:19:07,   0.0,  0.0,  221,+11.5,  93.0,    1.4,   +7.8, +103.6,  +40.5,+1100.00,2C
07/03/2012,00:19:32,   0.0,  0.0,  194,+11.5,  93.0,    1.2,   +7.9, +103.1,  +40.5,+1100.00,2D
07/03/2012,00:19:50,   0.0,  0.0,  207,+11.5,  93.0,    1.4,   +7.8, +102.8,  +40.2,+1100.00,2C
07/03/2012,00:20:08,   0.0,  0.0,  202,+11.6,  93.1,    1.2,   +7.7, +103.6,  +40.2,+1100.00,20
07/03/2012,00:20:26,   0.0,  0.0,  179,+11.5,  92.9,    1.3,   +7.9, +103.5,  +40.6,+1100.00,39
07/03/2012,00:20:52,   0.0,  0.0,  198,+11.5,  93.0,    1.2,   +7.8, +104.3,  +40.6,+1100.00,2E
07/03/2012,00:21:10,   0.0,  0.0,  203,+11.5,  92.9,    1.3,   +7.9, +103.4,  +40.7,+1100.00,27
07/03/2012,00:21:28,   0.0,  0.0,  204,+11.5,  92.8,    1.4,   +7.8, +103.8,  +40.4,+1100.00,31
07/03/2012,00:21:46,   0.0,  0.0,  201,+11.5,  92.9,    1.3,   +7.7, +103.7,  +40.4,+1100.00,2C
07/03/2012,00:22:12,   0.0,  0.0,  200,+11.5,  92.9,    1.4,   +7.8, +103.2,  +40.4,+1100.00,22
07/03/2012,00:22:30,   0.0,  0.0,  212,+11.6,  92.8,    1.2,   +7.7, +103.6,  +40.3,+1100.00,25
07/03/2012,00:22:48,   0.0,  0.0,  208,+11.5,  92.8,    1.3,   +7.9, +103.2,  +40.6,+1100.00,34
07/03/2012,00:23:06,   0.0,  0.0,  207,+11.5,  92.8,    1.2,   +7.8, +103.2,  +40.4,+1100.00,2A
07/03/2012,00:23:32,   0.0,  0.0,  184,+11.5,  92.8,    1.3,   +7.8, +103.1,  +40.3,+1100.00,2C
07/03/2012,00:23:50,   0.0,  0.0,  194,+11.5,  92.8,    1.2,   +7.9, +102.9,  +40.6,+1100.00,37
07/03/2012,00:24:08,   0.0,  0.0,  187,+11.5,  92.8,    1.4,   +7.9, +103.3,  +40.5,+1100.00,39
07/03/2012,00:24:26,   0.0,  0.0,  210,+11.5,  92.7,    1.3,   +7.8, +103.2,  +40.6,+1100.00,29
07/03/2012,00:24:52,   0.0,  0.0,  202,+11.5,  92.6,    1.5,   +7.8, +103.6,  +40.4,+1100.00,2C
07/03/2012,00:25:10,   0.0,  0.0,  191,+11.5,  92.6,    1.3,   +7.8, +103.3,  +40.4,+1100.00,29
07/03/2012,00:25:28,   0.0,  0.0,  211,+11.5,  92.6,    1.4,   +7.8, +103.5,  +40.6,+1100.00,30
07/03/2012,00:25:46,   0.0,  0.0,  185,+11.5,  92.5,    1.3,   +7.8, +103.8,  +40.4,+1100.00,39
07/03/2012,00:26:12,   0.0,  0.0,  210,+11.6,  92.4,    1.4,   +7.8, +104.1,  +40.6,+1100.00,25
07/03/2012,00:26:30,   0.0,  0.0,  213,+11.5,  92.3,    1.3,   +7.8, +103.6,  +40.5,+1100.00,28
07/03/2012,00:26:48,   0.0,  0.0,  202,+11.6,  92.3,    1.4,   +7.8, +103.7,  +40.5,+1100.00,32
07/03/2012,00:27:06,   0.0,  0.0,  209,+11.5,  92.3,    1.2,   +7.9, +103.9,  +40.5,+1100.00,34
07/03/2012,00:27:32,   0.0,  0.0,  195,+11.6,  92.2,    1.5,   +7.7, +104.3,  +40.6,+1100.00,34
07/03/2012,00:27:50,   0.0,  0.0,  190,+11.6,  92.2,    1.1,   +7.9, +103.9,  +40.6,+1100.00,32
07/03/2012,00:28:08,   0.0,  0.0,  217,+11.6,  92.1,    1.4,   +7.8, +103.7,  +40.7,+1100.00,36
07/03/2012,00:28:26,   0.0,  0.0,  222,+11.6,  91.9,    1.3,   +7.7, +103.7,  +40.6,+1100.00,36
07/03/2012,00:28:52,   0.0,  0.0,  211,+11.6,  91.9,    1.4,   +7.8, +103.7,  +40.6,+1100.00,35
07/03/2012,00:29:10,   0.0,  0.0,  177,+11.6,  91.9,    1.2,   +7.8, +103.4,  +40.5,+1100.00,35
07/03/2012,00:29:28,   0.0,  0.0,  229,+11.6,  91.9,    1.4,   +7.8, +103.8,  +40.5,+1100.00,42
07/03/2012,00:29:46,   0.0,  0.0,  210,+11.7,  91.7,    1.3,   +7.8, +103.6,  +40.3,+1100.00,32
07/03/2012,00:30:12,   0.0,  0.0,  218,+11.6,  91.8,    1.2,   +7.7, +104.1,  +40.6,+1100.00,28
07/03/2012,00:30:30,   0.0,  0.0,  207,+11.7,  91.7,    1.3,   +7.9, +103.1,  +40.3,+1100.00,25
07/03/2012,00:30:48,   0.0,  0.0,  233,+11.6,  91.6,    1.2,   +7.7, +103.8,  +40.1,+1100.00,2D
07/03/2012,00:31:06,   0.0,  0.0,  234,+11.7,  91.6,    1.3,   +7.8, +103.0,  +40.4,+1100.00,27
07/03/2012,00:31:32,   0.0,  0.0,  213,+11.7,  91.5,    1.3,   +7.9, +103.4,  +40.6,+1100.00,29
07/03/2012,00:31:50,   0.0,  0.0,  207,+11.7,  91.5,    1.2,   +7.8, +103.4,  +40.4,+1100.00,28
07/03/2012,00:32:08,   0.0,  0.0,  206,+11.7,  91.4,    1.4,   +7.8, +103.7,  +40.3,+1100.00,2E
07/03/2012,00:32:26,   0.0,  0.0,  221,+11.7,  91.5,    1.2,   +7.8, +103.7,  +40.4,+1100.00,2B
07/03/2012,00:32:52,   0.0,  0.0,  195,+11.7,  91.4,    1.3,   +7.8, +103.5,  +40.2,+1100.00,30
07/03/2012,00:33:10,   0.0,  0.0,  195,+11.7,  91.5,    1.2,   +7.9, +103.5,  +40.4,+1100.00,2E
07/03/2012,00:33:28,   0.0,  0.0,  203,+11.7,  91.4,    1.3,   +7.7, +103.9,  +40.4,+1100.00,2F
07/03/2012,00:33:46,   0.0,  0.0,  187,+11.6,  91.4,    1.3,   +7.7, +103.9,  +40.6,+1100.00,3B
07/03/2012,00:34:12,   0.0,  0.0,  174,+11.7,  91.4,    1.4,   +7.7, +103.5,  +40.4,+1100.00,2D
07/03/2012,00:34:30,   0.0,  0.0,  199,+11.7,  91.4,    1.2,   +7.8, +103.4,  +40.6,+1100.00,34
07/03/2012,00:34:48,   0.0,  0.0,  203,+11.7,  91.3,    1.4,   +7.8, +103.3,  +40.4,+1100.00,2D
07/03/2012,00:35:06,   0.0,  0.0,  221,+11.7,  91.3,    1.3,   +7.8, +103.6,  +40.6,+1100.00,2C
07/03/2012,00:35:32,   0.0,  0.0,  229,+11.7,  91.3,    1.5,   +7.9, +103.6,  +40.5,+1100.00,35
07/03/2012,00:35:50,   0.0,  0.0,  197,+11.7,  91.2,    1.2,   +7.7, +103.6,  +40.5,+1100.00,33
07/03/2012,00:36:08,   0.0,  0.0,  201,+11.7,  91.1,    1.4,   +7.7, +103.4,  +40.5,+1100.00,28
07/03/2012,00:36:26,   0.0,  0.0,  189,+11.7,  91.1,    1.3,   +7.7, +103.7,  +40.7,+1100.00,3B
07/03/2012,00:36:52,   0.0,  0.0,  203,+11.7,  91.1,    1.2,   +7.8, +103.6,  +40.3,+1100.00,28
07/03/2012,00:37:10,   0.0,  0.0,  192,+11.7,  91.1,    1.3,   +7.7, +103.4,  +40.4,+1100.00,29
07/03/2012,00:37:28,   0.0,  0.0,  193,+11.7,  91.1,    1.4,   +7.8, +103.4,  +40.5,+1100.00,36
07/03/2012,00:37:46,   0.0,  0.0,  223,+11.7,  91.0,    1.2,   +7.8, +103.5,  +40.4,+1100.00,2D
07/03/2012,00:38:12,   0.0,  0.0,  198,+11.7,  91.1,    1.4,   +7.8, +103.8,  +40.5,+1100.00,39
07/03/2012,00:38:30,   0.0,  0.0,  182,+11.7,  91.0,    1.2,   +7.7, +103.6,  +40.5,+1100.00,2C
07/03/2012,00:38:48,   0.0,  0.0,  219,+11.7,  91.0,    1.5,   +7.7, +103.6,  +40.5,+1100.00,39
07/03/2012,00:39:06,   0.0,  0.0,  206,+11.7,  90.9,    1.4,   +7.8, +103.8,  +40.7,+1100.00,3C
07/03/2012,00:39:32,   0.0,  0.0,  225,+11.7,  90.9,    1.4,   +7.7, +103.7,  +40.7,+1100.00,3A
07/03/2012,00:39:50,   0.0,  0.0,  217,+11.7,  90.9,    1.4,   +7.8, +103.6,  +40.6,+1100.00,3A
07/03/2012,00:40:08,   0.0,  0.0,  215,+11.7,  90.9,    1.3,   +7.7, +103.9,  +40.2,+1100.00,30
07/03/2012,00:40:26,   0.0,  0.0,  209,+11.7,  90.9,    1.1,   +7.8, +102.1,  +40.2,+1100.00,29
07/03/2012,00:40:52,   0.0,  0.0,  213,+11.7,  90.9,    1.4,   +7.8, +102.3,  +40.2,+1100.00,28
07/03/2012,00:41:10,   0.0,  0.0,  206,+11.7,  90.9,    1.1,   +7.8, +102.3,  +40.0,+1100.00,20
07/03/2012,00:41:28,   0.0,  0.0,  208,+11.7,  91.0,    1.2,   +7.8, +102.6,  +40.2,+1100.00,29
07/03/2012,00:41:46,   0.0,  0.0,  173,+11.7,  91.0,    1.4,   +7.8, +102.4,  +40.3,+1100.00,2B
07/03/2012,00:42:12,   0.0,  0.0,  198,+11.8,  91.1,    1.3,   +7.8, +103.2,  +40.5,+1100.00,2E
07/03/2012,00:42:30,   0.0,  0.0,  201,+11.8,  91.2,    1.4,   +7.8, +102.4,  +40.2,+1100.00,1F
07/03/2012,00:42:47,   0.0,  0.0,  205,+11.7,  91.1,    1.3,   +7.8, +102.3,  +40.1,+1100.00,26
07/03/2012,00:43:05,   0.0,  0.0,  197,+11.7,  91.2,    1.2,   +7.8, +102.4,  +40.0,+1100.00,2B
07/03/2012,00:43:31,   0.0,  0.0,  185,+11.7,  91.2,    1.1,   +7.8, +102.6,  +40.1,+1100.00,29
07/03/2012,00:43:49,   0.0,  0.0,  218,+11.7,  91.2,    1.3,   +7.9, +102.2,  +40.1,+1100.00,2E
07/03/2012,00:44:06,   0.0,  0.0,  198,+11.7,  91.2,    1.2,   +7.9, +102.3,  +40.1,+1100.00,2F
07/03/2012,00:44:32,   0.0,  0.0,  219,+11.7,  91.2,    1.2,   +7.7, +102.2,  +40.0,+1100.00,24
07/03/2012,00:44:50,   0.0,  0.0,  186,+11.7,  91.3,    1.2,   +7.8, +102.3,  +39.8,+1100.00,3A
07/03/2012,00:45:08,   0.0,  0.0,  166,+11.7,  91.3,    1.2,   +7.8, +102.5,  +39.8,+1100.00,3E
07/03/2012,00:45:26,   0.0,  0.0,  197,+11.7,  91.3,    1.2,   +7.8, +102.6,  +39.8,+1100.00,43
07/03/2012,00:45:52,   0.0,  0.0,  160,+11.7,  91.3,    1.4,   +7.7, +102.6,  +40.2,+1100.00,2B
07/03/2012,00:46:10,   0.0,  0.0,  206,+11.7,  91.3,    1.2,   +7.9, +101.8,  +40.0,+1100.00,26
07/03/2012,00:46:28,   0.0,  0.0,  201,+11.7,  91.4,    1.4,   +7.8, +102.5,  +40.0,+1100.00,2A
07/03/2012,00:46:46,   0.0,  0.0,  197,+11.7,  91.4,    1.4,   +7.8, +102.3,  +40.1,+1100.00,37
07/03/2012,00:47:12,   0.0,  0.0,  191,+11.7,  91.5,    1.3,   +7.9, +102.4,  +40.1,+1100.00,2D
07/03/2012,00:47:30,   0.0,  0.0,  193,+11.7,  91.6,    1.4,   +7.8, +102.7,  +39.8,+1100.00,42
07/03/2012,00:47:47,   0.0,  0.0,  210,+11.7,  91.6,    1.2,   +7.8, +102.2,  +39.8,+1100.00,39
07/03/2012,00:48:05,   0.0,  0.0,  191,+11.7,  91.7,    1.1,   +7.7, +102.6,  +40.0,+1100.00,2F
07/03/2012,00:48:31,   0.0,  0.0,  200,+11.7,  91.7,    1.1,   +7.7, +103.1,  +40.3,+1100.00,24
07/03/2012,00:48:49,   0.0,  0.0,  209,+11.7,  91.7,    1.3,   +7.8, +103.1,  +39.9,+1100.00,47
07/03/2012,00:49:06,   0.0,  0.0,  203,+11.6,  91.7,    1.2,   +7.8, +102.7,  +39.6,+1100.00,3B
07/03/2012,00:49:32,   0.0,  0.0,  186,+11.7,  91.7,    1.1,   +7.8, +103.0,  +40.4,+1100.00,34
07/03/2012,00:49:50,   0.0,  0.0,  220,+11.6,  91.8,    1.2,   +7.7, +102.8,  +39.9,+1100.00,3D
07/03/2012,00:50:08,   0.0,  0.0,  206,+11.6,  91.8,    1.2,   +7.7, +103.0,  +40.1,+1100.00,25
07/03/2012,00:50:26,   0.0,  0.0,  205,+11.7,  91.8,    1.2,   +7.9, +102.4,  +40.1,+1100.00,2A
07/03/2012,00:50:52,   0.0,  0.0,  201,+11.6,  91.8,    1.2,   +7.8, +102.0,  +39.9,+1100.00,2F
07/03/2012,00:51:10,   0.0,  0.0,  197,+11.6,  91.9,    1.0,   +7.4, +102.6,  +39.9,+1100.00,39
07/03/2012,00:51:28,   0.0,  0.0,  194,+11.6,  91.9,    1.2,   +7.8, +102.1,  +40.0,+1100.00,2F
07/03/2012,00:51:46,   0.0,  0.0,  178,+11.7,  91.9,    1.1,   +7.7, +102.6,  +39.8,+1100.00,45
07/03/2012,00:52:12,   0.0,  0.0,  216,+11.6,  92.0,    1.2,   +7.7, +102.5,  +40.1,+1100.00,20
07/03/2012,00:52:30,   0.0,  0.0,  200,+11.7,  91.9,    1.1,   +7.5, +102.3,  +40.1,+1100.00,1D
07/03/2012,00:52:48,   0.0,  0.0,  187,+11.6,  92.0,    1.1,   +7.8, +102.4,  +40.0,+1100.00,2E
07/03/2012,00:53:06,   0.0,  0.0,  201,+11.6,  92.0,    1.4,   +7.7, +102.6,  +40.0,+1100.00,20
07/03/2012,00:53:32,   0.0,  0.0,  181,+11.6,  92.0,    1.3,   +7.8, +103.0,  +39.7,+1100.00,30
07/03/2012,00:53:50,   0.0,  0.0,  220,+11.6,  92.1,    1.1,   +7.4, +103.0,  +40.0,+1100.00,16
07/03/2012,00:54:08,   0.0,  0.0,  212,+11.6,  92.1,    1.2,   +7.7, +103.1,  +39.9,+1100.00,31
07/03/2012,00:54:26,   0.0,  0.0,  183,+11.6,  92.0,    1.2,   +7.9, +102.8,  +40.0,+1100.00,2E
07/03/2012,00:54:52,   0.0,  0.0,  209,+11.6,  92.1,    1.2,   +7.9, +102.7,  +40.2,+1100.00,2E
07/03/2012,00:55:10,   0.0,  0.0,  187,+11.6,  92.1,    1.2,   +7.8, +103.0,  +40.1,+1100.00,26
07/03/2012,00:55:28,   0.0,  0.0,  199,+11.6,  92.1,    1.4,   +7.9, +102.8,  +40.1,+1100.00,3C
07/03/2012,00:55:46,   0.0,  0.0,  194,+11.6,  92.1,    1.4,   +7.8, +102.5,  +40.1,+1100.00,33
07/03/2012,00:56:12,   0.0,  0.0,  216,+11.6,  92.0,    1.3,   +7.9, +102.5,  +40.2,+1100.00,28
07/03/2012,00:56:30,   0.0,  0.0,  166,+11.6,  92.1,    1.2,   +7.3, +102.4,  +39.9,+1100.00,34
07/03/2012,00:56:48,   0.0,  0.0,  203,+11.5,  92.1,    1.2,   +7.9, +102.6,  +40.3,+1100.00,2E
07/03/2012,00:57:06,   0.0,  0.0,  207,+11.6,  92.1,    1.2,   +7.8, +102.7,  +40.0,+1100.00,2B
07/03/2012,00:57:32,   0.0,  0.0,  189,+11.6,  92.1,    1.3,   +7.8, +102.9,  +40.3,+1100.00,39
07/03/2012,00:57:50,   0.0,  0.0,  186,+11.7,  92.1,    1.3,   +7.4, +103.0,  +40.0,+1100.00,28
07/03/2012,00:58:08,   0.0,  0.0,  190,+11.6,  92.1,    1.3,   +7.8, +103.0,  +39.8,+1100.00,3A
07/03/2012,00:58:26,   0.0,  0.0,  172,+11.6,  92.0,    1.3,   +7.8, +103.1,  +40.2,+1100.00,2C
07/03/2012,00:58:52,   0.0,  0.0,  240,+11.6,  92.0,    1.3,   +7.7, +103.2,  +40.1,+1100.00,26
07/03/2012,00:59:10,   0.0,  0.0,  202,+11.6,  92.0,    1.2,   +7.5, +103.2,  +39.9,+1100.00,2C
07/03/2012,00:59:28,   0.0,  0.0,  218,+11.6,  91.9,    1.3,   +7.8, +103.2,  +40.1,+1100.00,38
07/03/2012,00:59:46,   0.0,  0.0,  207,+11.6,  91.9,    1.3,   +7.7, +103.1,  +40.3,+1100.00,36
07/03/2012,01:00:12,   0.0,  0.0,  214,+11.6,  91.9,    1.3,   +7.3, +103.7,  +40.3,+1100.00,22
07/03/2012,01:00:30,   0.0,  0.0,  204,+11.6,  91.9,    1.3,   +7.8, +103.5,  +40.0,+1100.00,21
07/03/2012,01:01:06,   0.0,  0.0,  194,+11.6,  91.9,    1.3,   +7.9, +103.1,  +39.9,+1100.00,3B
07/03/2012,01:01:32,   0.0,  0.0,  215,+11.6,  92.0,    1.3,   +7.7, +103.8,  +39.6,+1100.00,2E
07/03/2012,01:01:50,   0.0,  0.0,  209,+11.6,  91.9,    1.4,   +7.8, +103.3,  +40.2,+1100.00,2A
07/03/2012,01:02:08,   0.0,  0.0,  191,+11.6,  91.9,    1.0,   +7.8, +103.2,  +40.1,+1100.00,28
07/03/2012,01:02:26,   0.0,  0.0,  183,+11.6,  91.9,    1.6,   +7.9, +103.3,  +39.7,+1100.00,3F
07/03/2012,01:02:52,   0.0,  0.0,  183,+11.7,  91.9,    1.4,   +7.8, +103.8,  +40.1,+1100.00,33
07/03/2012,01:03:10,   0.0,  0.0,  204,+11.7,  92.0,    1.5,   +7.9, +103.5,  +39.7,+1100.00,2D
07/03/2012,01:03:27,   0.0,  0.0,  227,+11.6,  92.0,    1.3,   +7.9, +103.1,  +39.8,+1100.00,34
07/03/2012,01:03:45,   0.0,  0.0,  202,+11.6,  92.0,    1.5,   +7.8, +102.6,  +39.7,+1100.00,31
07/03/2012,01:04:11,   0.0,  0.0,  197,+11.6,  92.0,    1.1,   +7.9, +103.1,  +40.1,+1100.00,23
07/03/2012,01:04:29,   0.0,  0.0,  216,+11.6,  92.0,    1.5,   +7.8, +103.4,  +40.1,+1100.00,2A
07/03/2012,01:04:47,   0.0,  0.0,  170,+11.6,  92.0,    1.3,   +7.8, +103.0,  +40.0,+1100.00,22
07/03/2012,01:05:12,   0.0,  0.0,  216,+11.6,  92.1,    1.4,   +7.8, +102.6,  +39.9,+1100.00,34
07/03/2012,01:05:30,   0.0,  0.0,  218,+11.6,  92.0,    1.4,   +7.8, +102.9,  +40.1,+1100.00,28
07/03/2012,01:05:48,   0.0,  0.0,  196,+11.6,  92.0,    1.3,   +7.7, +103.2,  +39.5,+1100.00,3A
07/03/2012,01:06:06,   0.0,  0.0,  214,+11.6,  92.0,    1.3,   +7.8, +104.2,  +40.8,+1100.00,29
07/03/2012,01:06:32,   0.0,  0.0,  201,+11.6,  91.9,    1.3,   +7.8, +104.4,  +40.5,+1100.00,2B
07/03/2012,01:06:50,   0.0,  0.0,  202,+11.6,  91.8,    1.3,   +7.8, +104.9,  +40.6,+1100.00,31
07/03/2012,01:07:08,   0.0,  0.0,  193,+11.6,  91.8,    1.6,   +7.8, +104.9,  +40.6,+1100.00,41
07/03/2012,01:07:26,   0.0,  0.0,  213,+11.6,  91.7,    1.4,   +7.8, +104.8,  +40.6,+1100.00,36
07/03/2012,01:07:52,   0.0,  0.0,  172,+11.6,  91.7,    1.4,   +7.9, +104.1,  +40.4,+1100.00,31
07/03/2012,01:08:10,   0.0,  0.0,  194,+11.6,  91.7,    1.4,   +7.8, +104.6,  +40.7,+1100.00,37
07/03/2012,01:08:28,   0.0,  0.0,  192,+11.6,  91.6,    1.5,   +7.8, +104.8,  +40.4,+1100.00,3D
07/03/2012,01:08:46,   0.0,  0.0,  200,+11.6,  91.5,    1.4,   +7.8, +104.1,  +40.5,+1100.00,2B
07/03/2012,01:09:12,   0.0,  0.0,  210,+11.6,  91.4,    1.4,   +7.8, +104.7,  +40.5,+1100.00,2B
07/03/2012,01:09:30,   0.0,  0.0,  204,+11.6,  91.5,    1.4,   +7.9, +104.2,  +40.5,+1100.00,2B
07/03/2012,01:09:48,   0.0,  0.0,  195,+11.6,  91.5,    1.6,   +7.8, +104.4,  +40.3,+1100.00,3E
07/03/2012,01:10:06,   0.0,  0.0,  196,+11.6,  91.4,    1.3,   +7.8, +103.9,  +40.3,+1100.00,31
07/03/2012,01:10:32,   0.0,  0.0,  190,+11.6,  91.3,    1.4,   +7.9, +104.3,  +40.4,+1100.00,27
07/03/2012,01:10:50,   0.0,  0.0,  281,+11.6,  91.0,    1.2,   +7.9, +104.1,  +40.6,+1100.00,23
07/03/2012,01:11:08,   0.0,  0.0,  197,+11.6,  91.0,    1.5,   +7.8, +104.1,  +40.0,+1100.00,29
07/03/2012,01:11:26,   0.0,  0.0,  208,+11.6,  91.0,    1.5,   +7.7, +104.1,  +40.0,+1100.00,21
07/03/2012,01:11:52,   0.0,  0.0,  205,+11.6,  91.0,    1.2,   +7.8, +104.3,  +40.2,+1100.00,1F
07/03/2012,01:12:10,   0.0,  0.0,  207,+11.6,  90.9,    1.3,   +7.9, +104.5,  +40.5,+1100.00,2B
07/03/2012,01:12:28,   0.0,  0.0,  204,+11.6,  90.7,    1.1,   +7.7, +104.1,  +40.1,+1100.00,23
07/03/2012,01:12:46,   0.0,  0.0,  197,+11.6,  90.6,    1.4,   +7.9, +104.2,  +40.3,+1100.00,35
07/03/2012,01:13:12,   0.0,  0.0,  208,+11.6,  90.5,    1.3,   +7.9, +104.1,  +40.3,+1100.00,25
07/03/2012,01:13:30,   0.0,  0.0,  197,+11.6,  90.5,    1.5,   +7.7, +103.8,  +40.2,+1100.00,31
07/03/2012,01:13:47,   0.0,  0.0,  218,+11.6,  90.4,    1.5,   +7.8, +103.9,  +40.3,+1100.00,35
07/03/2012,01:14:05,   0.0,  0.0,  216,+11.6,  90.1,    1.2,   +7.8, +104.0,  +40.3,+1100.00,20
07/03/2012,01:14:31,   0.0,  0.0,  233,+11.6,  90.0,    1.2,   +7.7, +104.3,  +40.4,+1100.00,20
07/03/2012,01:14:49,   0.0,  0.0,  210,+11.6,  90.0,    1.5,   +7.8, +103.9,  +40.3,+1100.00,2C
07/03/2012,01:15:07,   0.0,  0.0,  208,+11.6,  89.9,    1.4,   +7.8, +103.9,  +40.5,+1100.00,40
07/03/2012,01:15:32,   0.0,  0.0,  196,+11.6,  89.9,    1.2,   +7.8, +104.6,  +40.4,+1100.00,3F
07/03/2012,01:15:50,   0.0,  0.0,  194,+11.6,  89.8,    1.3,   +7.9, +104.0,  +40.1,+1100.00,35
07/03/2012,01:16:08,   0.0,  0.0,  200,+11.6,  89.8,    1.2,   +7.9, +103.5,  +40.4,+1100.00,33
07/03/2012,01:16:26,   0.0,  0.0,  210,+11.6,  89.9,    1.2,   +7.8, +103.8,  +40.3,+1100.00,36
07/03/2012,01:16:52,   0.0,  0.0,  223,+11.6,  89.9,    1.6,   +7.8, +104.0,  +40.4,+1100.00,37
07/03/2012,01:17:10,   0.0,  0.0,  198,+11.6,  89.8,    1.5,   +7.8, +103.9,  +40.2,+1100.00,41
07/03/2012,01:17:28,   0.0,  0.0,  251,+11.6,  89.8,    1.3,   +7.8, +104.0,  +40.6,+1100.00,3A
07/03/2012,01:17:46,   0.0,  0.0,  210,+11.6,  89.7,    1.5,   +7.8, +103.3,  +40.5,+1100.00,37
07/03/2012,01:18:12,   0.0,  0.0,  221,+11.6,  89.7,    1.3,   +7.8, +103.8,  +40.4,+1100.00,35
07/03/2012,01:18:30,   0.0,  0.0,  244,+11.6,  89.7,    1.2,   +7.8, +103.6,  +40.5,+1100.00,38
07/03/2012,01:18:47,   0.0,  0.0,  248,+11.6,  89.7,    1.2,   +7.9, +104.1,  +40.4,+1100.00,40
07/03/2012,01:19:05,   0.0,  0.0,  204,+11.6,  89.7,    1.2,   +7.8, +103.8,  +40.1,+1100.00,35
07/03/2012,01:19:31,   0.0,  0.0,  205,+11.6,  89.7,    1.1,   +7.7, +103.9,  +39.8,+1100.00,43
07/03/2012,01:19:49,   0.0,  0.0,  213,+11.6,  89.7,    1.4,   +7.8, +103.3,  +40.2,+1100.00,3B
07/03/2012,01:20:07,   0.0,  0.0,  194,+11.6,  89.7,    1.4,   +7.8, +103.9,  +40.0,+1100.00,39
07/03/2012,01:20:32,   0.0,  0.0,  231,+11.6,  89.7,    1.4,   +7.8, +104.2,  +40.3,+1100.00,2C
07/03/2012,01:20:50,   0.0,  0.0,  190,+11.6,  89.7,    1.2,   +7.9, +104.3,  +40.3,+1100.00,30
07/03/2012,01:21:08,   0.0,  0.0,  193,+11.6,  89.6,    1.4,   +7.8, +104.4,  +40.2,+1100.00,37
07/03/2012,01:21:26,   0.0,  0.0,  221,+11.6,  89.6,    1.3,   +7.7, +104.8,  +40.4,+1100.00,33
07/03/2012,01:21:52,   0.0,  0.0,  231,+11.6,  89.7,    1.3,   +7.8, +105.0,  +40.4,+1100.00,2E
07/03/2012,01:22:10,   0.0,  0.0,  215,+11.6,  89.7,    1.4,   +7.7, +103.9,  +40.1,+1100.00,2F
07/03/2012,01:22:28,   0.0,  0.0,  232,+11.6,  89.7,    1.2,   +7.9, +104.5,  +40.4,+1100.00,37